When you browse on this site, cookies collect data to enhance your experience and personalize the content and advertising you see.
Visit our Privacy Policy to learn more. By continuing to use the site, you agree to this use of cookies and data.
  • In Hungary
  • List of Countries
  • For 7 days
  • Water Temperature
  • Satellite Maps
  • Weather Map
  • News
  • Weather Widgets
  • user-avatar
    Login

    Hourly Weather Baza

    Today, 18 June, Tuesday

    Time Temperature Precipitation Wind Pressure Humidity
    00:00 +20°C° 0 mm 1 mps 689 mmHg 51%
    01:00 +20°C° 0 mm 1 mps 688 mmHg 52%
    02:00 +19°C° 0 mm 1 mps 688 mmHg 53%
    03:00 +16°C° 0 mm 0 mps 687 mmHg 53%
    04:00 +17°C° 0 mm 0 mps 688 mmHg 51%
    05:00 +18°C° 0 mm 0 mps 688 mmHg 49%
    06:00 +19°C° 0 mm 0 mps 689 mmHg 46%
    07:00 +21°C° 0 mm 0 mps 689 mmHg 40%
    08:00 +24°C° 0 mm 1 mps 690 mmHg 34%
    09:00 +26°C° 0 mm 1 mps 690 mmHg 28%
    10:00 +28°C° 0 mm 2 mps 690 mmHg 25%
    11:00 +29°C° 0 mm 2 mps 690 mmHg 22%
    12:00 +31°C° 0 mm 3 mps 690 mmHg 18%
    13:00 +31°C° 0 mm 3 mps 690 mmHg 17%
    14:00 +33°C° 0 mm 4 mps 690 mmHg 16%
    15:00 +34°C° 0 mm 4 mps 690 mmHg 15%
    16:00 +33°C° 0 mm 4 mps 689 mmHg 15%
    17:00 +32°C° 0 mm 4 mps 689 mmHg 16%
    18:00 +30°C° 0 mm 4 mps 689 mmHg 17%
    19:00 +28°C° 0 mm 3 mps 689 mmHg 20%
    20:00 +25°C° 0 mm 3 mps 689 mmHg 24%
    21:00 +23°C° 0 mm 2 mps 689 mmHg 28%
    22:00 +21°C° 0 mm 2 mps 688 mmHg 33%
    23:00 +20°C° 0 mm 2 mps 688 mmHg 38%

    Tomorrow, 19 June, Wednesday

    Time Temperature Precipitation Wind Pressure Humidity
    00:00 +19°C° 0 mm 2 mps 688 mmHg 42%
    01:00 +19°C° 0 mm 1 mps 688 mmHg 47%
    02:00 +19°C° 0 mm 1 mps 687 mmHg 52%
    03:00 +18°C° 0 mm 1 mps 687 mmHg 57%
    04:00 +18°C° 0 mm 1 mps 687 mmHg 58%
    05:00 +19°C° 0 mm 1 mps 687 mmHg 58%
    06:00 +19°C° 0 mm 1 mps 688 mmHg 59%
    07:00 +21°C° 0 mm 1 mps 688 mmHg 51%
    08:00 +23°C° 0 mm 1 mps 688 mmHg 43%
    09:00 +25°C° 0 mm 1 mps 689 mmHg 36%
    10:00 +27°C° 0 mm 2 mps 689 mmHg 30%
    11:00 +29°C° 0 mm 2 mps 689 mmHg 25%
    12:00 +31°C° 0 mm 2 mps 690 mmHg 19%
    13:00 +31°C° 0 mm 3 mps 689 mmHg 18%
    14:00 +33°C° 0 mm 4 mps 689 mmHg 17%
    15:00 +34°C° 0 mm 4 mps 689 mmHg 15%
    16:00 +33°C° 0 mm 5 mps 688 mmHg 18%
    17:00 +32°C° 0 mm 5 mps 688 mmHg 20%
    18:00 +30°C° 0 mm 6 mps 688 mmHg 22%
    19:00 +28°C° 0 mm 4 mps 688 mmHg 26%
    20:00 +26°C° 0 mm 3 mps 688 mmHg 30%
    21:00 +24°C° 0 mm 2 mps 687 mmHg 34%
    22:00 +23°C° 0 mm 2 mps 687 mmHg 36%
    23:00 +21°C° 0 mm 2 mps 687 mmHg 39%

    Day after tomorrow, 20 June, Thursday

    Time Temperature Precipitation Wind Pressure Humidity
    00:00 +20°C° 0 mm 2 mps 687 mmHg 41%
    01:00 +19°C° 0 mm 2 mps 687 mmHg 48%
    02:00 +18°C° 0 mm 2 mps 686 mmHg 54%
    03:00 +17°C° 0 mm 2 mps 686 mmHg 60%
    04:00 +19°C° 0 mm 1 mps 686 mmHg 62%
    05:00 +19°C° 0 mm 1 mps 686 mmHg 64%
    06:00 +19°C° 0 mm 1 mps 686 mmHg 66%
    07:00 +21°C° 0 mm 1 mps 687 mmHg 58%
    08:00 +23°C° 0 mm 1 mps 687 mmHg 50%
    09:00 +25°C° 0 mm 2 mps 688 mmHg 42%
    10:00 +26°C° 0 mm 2 mps 688 mmHg 36%
    11:00 +28°C° 0 mm 2 mps 688 mmHg 30%
    12:00 +30°C° 0 mm 2 mps 689 mmHg 23%
    13:00 +31°C° 0 mm 3 mps 688 mmHg 21%
    14:00 +33°C° 0 mm 3 mps 688 mmHg 20%
    15:00 +33°C° 0 mm 3 mps 688 mmHg 18%
    16:00 +33°C° 0 mm 4 mps 688 mmHg 19%
    17:00 +32°C° 0 mm 4 mps 688 mmHg 21%
    18:00 +30°C° 0 mm 5 mps 687 mmHg 22%
    19:00 +28°C° 0 mm 4 mps 687 mmHg 26%
    20:00 +26°C° 0 mm 3 mps 687 mmHg 30%
    21:00 +24°C° 0 mm 2 mps 687 mmHg 34%
    22:00 +23°C° 0 mm 2 mps 687 mmHg 37%
    23:00 +22°C° 0 mm 1 mps 687 mmHg 39%

    21 June, Friday

    Time Temperature Precipitation Wind Pressure Humidity
    00:00 +21°C° 0 mm 1 mps 687 mmHg 42%
    01:00 +21°C° 0 mm 1 mps 687 mmHg 46%
    02:00 +20°C° 0 mm 1 mps 686 mmHg 51%
    03:00 +18°C° 0 mm 2 mps 686 mmHg 55%
    04:00 +19°C° 0 mm 1 mps 686 mmHg 57%
    05:00 +20°C° 0 mm 1 mps 687 mmHg 58%
    06:00 +20°C° 0 mm 1 mps 687 mmHg 59%
    07:00 +21°C° 0 mm 1 mps 687 mmHg 53%
    08:00 +23°C° 0 mm 1 mps 688 mmHg 46%
    09:00 +25°C° 0 mm 2 mps 688 mmHg 40%
    10:00 +27°C° 0 mm 2 mps 689 mmHg 36%
    11:00 +28°C° 0 mm 2 mps 689 mmHg 32%
    12:00 +29°C° 0 mm 2 mps 689 mmHg 28%
    13:00 +30°C° 0 mm 2 mps 689 mmHg 26%
    14:00 +31°C° 0 mm 3 mps 688 mmHg 25%
    15:00 +33°C° 0 mm 3 mps 688 mmHg 23%
    16:00 +31°C° 0 mm 3 mps 688 mmHg 24%
    17:00 +31°C° 0 mm 3 mps 688 mmHg 24%
    18:00 +30°C° 0 mm 4 mps 688 mmHg 25%
    19:00 +28°C° 0 mm 3 mps 688 mmHg 29%
    20:00 +26°C° 0 mm 2 mps 688 mmHg 33%
    21:00 +24°C° 0 mm 2 mps 688 mmHg 37%
    22:00 +23°C° 0 mm 1 mps 688 mmHg 40%
    23:00 +22°C° 0 mm 1 mps 687 mmHg 43%

    22 June, Saturday

    Time Temperature Precipitation Wind Pressure Humidity
    00:00 +21°C° 0 mm 1 mps 687 mmHg 46%
    01:00 +21°C° 0 mm 1 mps 687 mmHg 49%
    02:00 +20°C° 0 mm 1 mps 687 mmHg 52%
    03:00 +20°C° 0 mm 1 mps 687 mmHg 54%
    04:00 +20°C° 0 mm 1 mps 687 mmHg 57%
    05:00 +21°C° 0 mm 1 mps 687 mmHg 59%
    06:00 +21°C° 0 mm 1 mps 688 mmHg 62%
    07:00 +23°C° 0 mm 1 mps 688 mmHg 54%
    08:00 +25°C° 0 mm 2 mps 688 mmHg 47%
    09:00 +27°C° 0 mm 2 mps 689 mmHg 40%
    10:00 +28°C° 0 mm 3 mps 689 mmHg 36%
    11:00 +29°C° 0 mm 3 mps 689 mmHg 33%
    12:00 +30°C° 0 mm 3 mps 689 mmHg 29%
    13:00 +31°C° 0 mm 3 mps 689 mmHg 29%
    14:00 +31°C° 0 mm 3 mps 689 mmHg 29%
    15:00 +33°C° 0 mm 3 mps 689 mmHg 28%
    16:00 +31°C° 0 mm 3 mps 688 mmHg 31%
    17:00 +30°C° 0 mm 3 mps 688 mmHg 35%
    18:00 +30°C° 0 mm 3 mps 688 mmHg 38%
    19:00 +28°C° 0 mm 2 mps 688 mmHg 41%
    20:00 +26°C° 0 mm 2 mps 688 mmHg 45%
    21:00 +24°C° 0 mm 1 mps 688 mmHg 48%
    22:00 +23°C° 0 mm 1 mps 688 mmHg 52%
    23:00 +22°C° 0 mm 1 mps 688 mmHg 55%

    23 June, Sunday

    Time Temperature Precipitation Wind Pressure Humidity
    00:00 +21°C° 0 mm 1 mps 688 mmHg 59%
    01:00 +21°C° 0 mm 1 mps 687 mmHg 60%
    02:00 +21°C° 0 mm 1 mps 687 mmHg 61%
    03:00 +20°C° 0 mm 1 mps 687 mmHg 63%
    04:00 +21°C° 0 mm 1 mps 687 mmHg 61%
    05:00 +21°C° 0 mm 1 mps 688 mmHg 59%
    06:00 +22°C° 0 mm 1 mps 688 mmHg 57%
    07:00 +24°C° 0 mm 1 mps 688 mmHg 50%
    08:00 +26°C° 0 mm 2 mps 689 mmHg 43%
    09:00 +28°C° 0 mm 2 mps 689 mmHg 35%
    10:00 +30°C° 0 mm 2 mps 689 mmHg 31%
    11:00 +31°C° 0 mm 3 mps 690 mmHg 27%
    12:00 +34°C° 0 mm 3 mps 690 mmHg 23%
    13:00 +35°C° 0 mm 4 mps 689 mmHg 22%
    14:00 +36°C° 0 mm 4 mps 689 mmHg 21%
    15:00 +36°C° 0 mm 5 mps 689 mmHg 20%
    16:00 +36°C° 0 mm 4 mps 688 mmHg 22%
    17:00 +35°C° 0 mm 4 mps 688 mmHg 24%
    18:00 +34°C° 0 mm 3 mps 688 mmHg 25%
    19:00 +30°C° 0 mm 3 mps 688 mmHg 35%
    20:00 +27°C° 0 mm 2 mps 688 mmHg 44%
    21:00 +24°C° 0 mm 1 mps 688 mmHg 54%
    22:00 +24°C° 0 mm 1 mps 688 mmHg 55%
    23:00 +23°C° 0 mm 1 mps 688 mmHg 56%
    Show more